This is the latest recevied weather packets stored in our database for station/object KE0YJJ-14. If no packets are shown the sender has not sent any weather packets the latest 10 day(s).
| Time | Temp. | Humidity | Pressure | Rain* | Wind** | Luminosity | Snow |
|---|---|---|---|---|---|---|---|
| 1777993227 | 7.78° C | 37% | - | 0 mm | - | - | - |
| 1777992923 | 7.22° C | 37% | - | 0 mm | - | - | - |
| 1777992622 | 7.22° C | 36% | - | 0 mm | - | - | - |
| 1777992319 | 6.67° C | 36% | - | 0 mm | - | - | - |
| 1777992016 | 7.22° C | 37% | - | 0 mm | - | - | - |
| 1777991714 | 6.67° C | 39% | - | 0 mm | - | - | - |
| 1777991411 | 6.67° C | 38% | - | 0 mm | - | - | - |
| 1777991108 | 6.67° C | 38% | - | 0 mm | - | - | - |
| 1777990805 | 6.11° C | 41% | - | 0 mm | - | - | - |
| 1777990502 | 6.67° C | 41% | - | 0 mm | - | - | - |
| 1777989895 | 6.67° C | 44% | - | 0 mm | - | - | - |
| 1777989592 | 6.67° C | 41% | - | 0 mm | - | - | - |
| 1777989289 | 6.11° C | 40% | - | 0 mm | - | - | - |
| 1777988985 | 6.67° C | 42% | - | 0 mm | - | - | - |
| 1777988682 | 6.11° C | 40% | - | 0 mm | - | - | - |
| 1777988378 | 5.56° C | 43% | - | 0 mm | - | - | - |
| 1777988076 | 5.56° C | 44% | - | 0 mm | - | - | - |
| 1777987771 | 5° C | 44% | - | 0 mm | - | - | - |
| 1777987468 | 5° C | 47% | - | 0 mm | - | - | - |
| 1777987166 | 5° C | 47% | - | 0 mm | - | - | - |
| 1777986862 | 5° C | 50% | - | 0 mm | - | - | - |
| 1777986560 | 5° C | 47% | - | 0 mm | - | - | - |
| 1777986258 | 5° C | 51% | - | 0 mm | - | - | - |
| 1777985955 | 4.44° C | 50% | - | 0 mm | - | - | - |
| 1777985653 | 4.44° C | 51% | - | 0 mm | - | - | - |
* Rain latest hour (hover to see other rain measurements)
** Current wind speed in m/s (hover to see current wind gust speed)